AirNav   BOSE A20 Aviation Headset
 
 950 users online  

1GE5 Flying D Airport
Concord, Georgia, USA

GOING TO CONCORD?


FAA INFORMATION EFFECTIVE 24 MAY 2018

Location

FAA Identifier: 1GE5
Lat/Long: 33-06-04.4500N / 084-23-36.7200W
33-06.074167N / 084-23.612000W
33.1012361 / -84.3935333
(estimated)
Elevation: 838 ft. / 255 m (estimated)
Variation: 03W (1995)
From city: 3 miles NE of CONCORD, GA
Time zone: UTC -4 (UTC -5 during Standard Time)
Zip code: 30206

Airport Operations

Airport use: Private use. Permission required prior to landing
Activation date: 07/1999
Control tower: no
ARTCC: ATLANTA CENTER
FSS: MACON FLIGHT SERVICE STATION
Attendance: UNATNDD
Wind indicator: yes
Segmented circle: no

Airport Communications

WX AWOS-3 at 6A2 (10 nm NE): 119.750 (770-227-3934)
WX AWOS-3 at OPN (11 nm SE): 133.975 (706-646-4123)
WX AWOS-3 at HMP (18 nm N): 124.825 (770-707-1719)
WX ASOS at FFC (18 nm NW): 118.525 (770-487-1610)

Nearby radio navigation aids

VOR radial/distance  VOR name  Freq  Var
ATLr181/31.7ATLANTA VORTAC116.9005W

 
NDB name  Hdg/Dist  Freq  Var  ID
PECAT164/12.931605WFFC ..-. ..-. -.-.
COWETA COUNTY123/18.623403WEQQ . --.- --.-
PINE MOUNTAIN060/28.727203WPIM .--. .. --

Airport Services

Runway Information

Runway 18/36

Dimensions: 1000 x 40 ft. / 305 x 12 m
Surface: turf, in good condition
RUNWAY 18  RUNWAY 36
Traffic pattern: leftright

Airport Ownership and Management from official FAA records

Ownership: Privately-owned
Owner: DAVID NEYHART
P.O. BOX 996
ZEBULON, GA 30295
Phone (770) 567-9928
Manager: DAVID NEYHART
P.O. BOX 996
ZEBULON, GA 30295
Phone (770) 567-9928

Airport Operational Statistics

Aircraft based on the field: 2
Single engine airplanes: 1
Ultralights: 1
    

Instrument Procedures

There are no published instrument procedures at 1GE5.

Some nearby airports with instrument procedures:

6A2 - Griffin-Spalding County Airport (10 nm NE)
KOPN - Thomaston-Upson County Airport (11 nm SE)
KHMP - Henry County Airport (18 nm N)
KFFC - Atlanta Regional Airport-Falcon Field (18 nm NW)
KCCO - Newnan Coweta County Airport (23 nm NW)
 
Loc | Ops | Rwys | IFR | FBO | Links
Com | Nav | Svcs | Stats | Notes

AirNav Hotels Sweepstakes
 
Aerial photo
No photo
 
Airport distance calculator
Flying to Flying D Airport? Find the distance to fly.

From to 1GE5

Sunrise and sunset
Times for 26-May-2018
 Local
(UTC-4)
 Zulu
(UTC)
Morning civil twilight06:0510:05
Sunrise06:3310:33
Sunset20:3600:36
Evening civil twilight21:0401:04

Current date and time
Zulu (UTC)  26-May-2018 17:51:53
Local (UTC-4)  26-May-2018 13:51:53
 
METAR
K6A2 
10nm NE 
261735Z AUTO 15003KT 10SM SCT026 SCT032 SCT040 27/21 A2997 RMK AO2
KOPN 
11nm SE 
261735Z AUTO 00000KT 10SM SCT047 BKN055 BKN080 27/17 A2998 RMK AO2
KFFC 
17nm NW 
261727Z AUTO 29003KT 10SM FEW026 SCT034 28/20 A2997 RMK AO2 T02830200
KHMP 
18nm N 
261735Z AUTO 20004KT 10SM SCT028 SCT035 SCT041 29/21 A2998 RMK AO2 T02850211
TAF
KATL 
32nm N 
261559Z 2616/2718 19004KT P6SM VCSH BKN020 FM261800 19006KT P6SM VCSH SCT025 BKN040 TEMPO 2620/2622 VRB15G25KT 3SM TSRA BKN025CB FM270300 16004KT P6SM SCT040 BKN200 FM271000 11005KT P6SM SCT005 OVC250 FM271200 11006KT P6SM BKN005 OVC250 FM271500 11008KT P6SM BKN025 OVC180
NOTAMs
Click for the latest NOTAMs
NOTAMs are issued by the DoD/FAA and will open in a separate window not controlled by AirNav.

 

 
 

Would you like to see your business listed on this page?

 If your business provides an interesting product or service to pilots, flight crews, aircraft, or users of the Flying D Airport, you should consider listing it here.  To start the listing process, click on the button below
 
Add a business
 

Other Pages about Flying D Airport

Update a link
 
Copyright © AirNav, LLC. All rights reserved. Privacy Policy  Contact